NOAA 16 DEB, 41049

Orbit data source: Space-Track

NOAA 16 DEB, 41049 is space debris in SSO originally from a launch on Thu, 21 Sep 2000 UTC launched from the Air Force Western Test Range (AFWTR). Debris objects in space refer to the collection of defunct objects orbiting the Earth. Examples of debris include non-operational satellites, rocket bodies, and fragments generated from explosions, collisions, or faulty payload assembly.

Loading next visibility...
Identifier
41049, 2000-055G
Orbit
SSO
Country
Flag of USUS
Related business
Manufacturer
Unknown
Mission
Spacecraft
Bus & Motor
Unknown
Mass
Unknown
Launch date (UTC)
2000-09-21 (26 years ago)
Launch vehicle
Unknown
Launch site
Air Force Western Test Range (AFWTR)
Object type
Payload
Rocket body
Debris
Shape & HBR
Unknown shape, 0.2 m
Radar Cross Section
Small (<0.1 m²)

Expand to show TLE details & history
Last TLE update: 10 hours ago

TLE from 10 hours ago
0 NOAA 16 DEB
1 41049U 00055G   26128.20913300  .00002314  00000-0  96764-3 0  9990
2 41049  98.6314 190.6999 0003874 275.3330  84.7408 14.27072777539988
Epoch: 2026-05-08T05:01Z
TLE epoch observation values (Epoch: 2026-05-08T05:01:09.091Z)
Latitude
-0.00006°
Longitude
-110.63218°
Altitude
804.205 km
Speed
7.451 km/s
True Right ascension
12h 42m 47s
True Declination
0° 00' 00"
Sunlit
Object was in full shadow at epoch
Visualization orbit readout
Latitude
Unknown
Longitude
Unknown
Altitude
Unknown
Speed
Unknown
Apparent Right ascension
Unknown
Apparent Declination
Unknown
Sunlit
N/A
Visualization observer readout
Local Sidereal Time
23:26:11
Azimuth
Unknown
Elevation
Unknown
Doppler factor
Unknown
Orbital elements
Apogee altitude
801.458 km
Perigee altitude
795.897 km
Semi-major axis
7,176.814 km
Eccentricity
0.00039
Inclination
98.6314°
RAAN
190.6999°
Arg. of periapsis
275.333°
True anomaly
84.78501°
Mean anomaly
84.7408°
Eccentric anomaly
84.7629°
Mean motion
3.56981 °/min
Orbital period
100.85 mins
BSTAR
0.00096764
Loading maneuver chart data...
Computing Atmospheric mass density...
Loading historical data...
Loading historical data...
Loading historical data...
Loading historical data...
Loading historical data...
Loading historical data...
Loading historical data...

Documentation

Showing up to 5 results
|